053  
ASUS42 KCHS 180112  
RWRCHS  
 
REGIONAL WEATHER ROUNDUP  
NATIONAL WEATHER SERVICE CHARLESTON SC  
900 PM EDT THU AUG 17 2017  
 
NOTE: "FAIR" INDICATES FEW OR NO CLOUDS BELOW 12,000 FEET WITH NO  
SIGNIFICANT WEATHER AND/OR S TO VISIBILITY
.  
 
NOT ALL STATIONS ARE QUALITY CONTROLLED. USE DATA WITH CAUTION...  
ESPECIALLY DEWPOINT OBSERVATIONS.  
 
SCZ027-030-031-034>040-042>050-180200-   
..SOUTHEAST SOUTH CAROLINA
 
 
 
CITY SKY/WX TMP DP RH WIND PRES REMARKS
 
N CHARLESTON MOCLDY 83 79 88 S7 29.98S HX 94  
WATERFRONT PRK N/A N/A N/A N/A S6 29.82S  
JOHNS ISLAND FAIR 84 81 89 S6 29.98S HX 98  
PINOPOLIS N/A 82 77 83 S5 29.90F HX 91  
MONCKS CORNER FAIR 79 75 89 S5 29.98S  
SUMMERVILLE FAIR 81 79 94 CALM 29.99R  
BEAUFORT MCAS CLOUDY 86 80 82 S7 29.99R HX 101  
BEAUFORT ARPT FAIR 86 77 74 SW5 29.99R HX 97  
HILTON HEAD IS CLEAR 86 81 84 SW8 30.00R HX 102  
WALTERBORO CLOUDY 82 77 83 CALM 30.00R HX 91  
ALLENDALE NOT AVBL  
   
..SOUTHERN MIDLANDS AND PEE DEE
 
 
 
CITY SKY/WX TMP DP RH WIND PRES REMARKS
 
GEORGETOWN FAIR 77 77 100 CALM 29.98F  
KINGSTREE FAIR 79 75 89 SE3 29.96F  
ORANGEBURG CLOUDY 82 74 76 SE9 29.98R  
BARNWELL FAIR 88 79 74 CALM 29.98S HX 102  
AIKEN FAIR 82 73 74 SW3 30.02S  
MANNING FAIR 82 73 74 MISG 29.97S  
COLUMBIA PTCLDY 87 76 69 CALM 29.96R HX 97  
SUMTER CLEAR 86 76 71 S8 29.94S HX 96  
FLORENCE CLOUDY 83 78 85 S9 29.97R HX 93  
MYRTLE BEACH PTCLDY 82 75 78 S6 29.98S  
N MYRTLE BEACH CLOUDY 78 78 100 CALM 29.97S  
 

 
 
GAZ063-065-086>088-099>101-113>116-118-119-134>141-150-180200-   
..SOUTHEAST GEORGIA
 
 
 
CITY SKY/WX TMP DP RH WIND PRES REMARKS
 
SAVANNAH ARPT PTCLDY 85 78 80 S9 30.01R HX 96  
HUNTER AAF CLEAR 84 79 84 SW10 29.98R HX 96  
FORT STEWART PTCLDY 80 74 79 S5 29.98S  
STATESBORO CLOUDY 87 74 64 S5 30.00R THUNDER HX 95  
SYLVANIA CLEAR 83 81 93 CALM 30.00R HX 98  
CLAXTON FAIR 85 76 74 CALM 30.00R THUNDER HX 95  
   
..CSRA...CENTRAL AND FAR SOUTHEAST GEORGIA
 
 
 
CITY SKY/WX TMP DP RH WIND PRES REMARKS
 
THOMSON PTCLDY 82 76 82 CALM 30.05S  
AUGUSTA-BUSH PTCLDY 87 77 72 W5 29.97R HX 99  
AUGUSTA-DANIEL CLEAR 88 72 58 VRB3 30.00R HX 94  
SWAINSBORO FAIR 86 77 74 CALM 30.01S HX 97  
VIDALIA CLOUDY 86 73 66 W5 30.01R HX 93  
EASTMAN FAIR 83 71 65 CALM 30.04R  
HAZLEHURST FAIR 85 70 60 CALM 30.00R HX 90  
ALMA CLOUDY 82 75 79 CALM 30.01R  
WAYCROSS CLOUDY 79 76 90 CALM 30.02R  
JESUP FAIR 81 73 78 CALM 30.01S  
BAXLEY FAIR 81 79 94 S3 30.01R  
BRUNSWICK PTCLDY 81 73 78 W6 30.03R  
SAINT SIMONS CLOUDY 83 78 85 SW5 30.01R HX 93  
 

 
 
SCZ027-028-034-036>038-045-046-048>050-GAZ119-141-180200-   
..LAKE AND SUPPLEMENTAL COASTAL OBSERVATIONS
 
 
 
STATION/POSITION TIME TEMP WIND PRES WAVE SWELL
 
AIR SEA DIR/SP/G HT/PER HT/PER/DIR  
(UTC) (F) (DEG/KT/KT) (MB) (FT/S) (FT/S/D)  
WINYAH BAY 2345 83 270/ 1 1015.0  
LAKE MURRAY 0020 88 230/ 3/ 4 1013.5  
ACE BASIN NERRS 2345 87 CALM 1015.0  
FORT PULASKI 0042 85 86 230/ 6/ 9 1016.2R  
SAPELO ISLAND 0000 85 CALM 1016.0  
 

 
 
ANZ835-935-AMZ111-154-330-350-352-354-370-450-454-472-180200-   
..C-MAN AND BUOY OBSERVATIONS
 
 
 
STATION/POSITION TIME TEMP WIND PRES WAVE SWELL
 
AIR SEA DIR/SP/G HT/PER HT/PER/DIR  
(UTC) (F) (DEG/KT/KT) (MB) (FT/S) (FT/S/D)  
BUOY 41004 0050 85 85 210/ 8/ 10 1014.8F 2/ 7 2/130/ 7  
BUOY 41008 0050 86 86 210/ 10/ 12 1015.6R  
FOLLY BEACH CMAN 0000 86 210/ 10/ 11 1016.0R  
CAPERS NEARSHORE 0008 84 86 220/ 10/ 14 1014.9F  
FRIPP NEARSHORE 0008 87 210/ 12/ 16 1014.9R  
 
 
STATION/POSITION TIME TEMP WIND PRES WAVE SWELL
 
AIR SEA DIR/SP/G HT/PER HT/PER/DIR  
(UTC) (F) (DEG/KT/KT) (MB) (FT/S) (FT/S/D)  
5E ST. MARYS GA 0100 86 N/A 1/ 9  
FRYING PAN BUOY 0050 84 85 210/ 6/ 8 1014.6F 2/ 7 2/120/ 7  
BUOY 41025 0050 83 86 180/ 8/ 10 1016.3R 2/ 7 2/ 50/ 7  
CAPE LOOKOUT NC 0000 83 160/ 8/ 9 1015.6R  
BUOY 41002 0050 81 85 250/ 14/ 19 1017.2R 2/ 5 2/100/ 7  
BUOY 41010 0050 85 86 180/ 6/ 8 1017.6R 2/ 8 2/ 90/ 8  
ST AUGUSTINE FL 0000 81 83 200/ 4/ 4 1016.5R  
 

 
 
 
CLICK HERE TO GO TO PREVIOUS BULLETINS.

The Nexlab SC Page
The Nexlab GA Page Main Text Page